Location: Granges
(46.7633°N, 6.8876°E)
Time: 11:52:22
(UTC+00:00)

Daily predictions for brighter satellites

Satellite Brightness Start Highest point End
(mag) Time Altitude Azimuth Time Altitude Azimuth Time Altitude Azimuth
BREEZE-M DEB (TANK) 3.4 19:26:54 10° SSW 19:29:59 43° SE 19:38:46 10° ENE
Cosmos 1076 Rocket 3.6 19:31:32 10° S 19:35:50 66° E 19:40:11 10° NNE
Resurs 01 Rocket 2.1 19:32:43 10° SE 19:36:56 46° ENE 19:41:12 10° N
Cosmos 1689 Rocket 2.9 19:34:35 10° N 19:37:17 51° WNW 19:39:57 10° SSW
SL-16 R/B 2.7 19:35:06 10° NNW 19:40:36 47° NE 19:46:03 10° SE
ATLAS 5 CENTAUR R/B 4.3 19:40:26 10° NNW 19:43:43 17° NNE 19:47:20 10° ENE
Terra 3.9 19:42:04 10° E 19:44:04 13° ENE 19:46:04 10° NNE
RESURS DK-1 3.7 19:40:46 10° SW 19:44:45 45° WNW 19:48:47 10° NNE
Meteor 2-3 Rocket 4.1 19:41:21 10° SSE 19:46:41 44° E 19:52:06 10° NNE
Cosmos 332 Rocket 3.9 19:42:29 10° NNW 19:47:24 72° ENE 19:52:17 10° SSE
SPOT 3 Rocket 3.9 19:42:41 10° SE 19:47:43 50° ENE 19:52:46 10° N
Cosmos 1933 3.6 19:48:36 10° N 19:52:34 50° ENE 19:56:28 10° SSE
Cosmos 1271 Rocket 3.3 19:49:58 10° N 19:53:49 44° ENE 19:57:39 10° SSE
Gbstr 26 Del rocket 2.6 19:50:48 10° WNW 19:54:32 80° SSW 19:58:12 11° ESE
Cosmos 1538 Rocket 4.1 19:50:33 10° SSW 19:55:45 84° WNW 20:00:58 10° NNE
IRS-1A Rocket 4.4 19:50:37 10° S 19:56:07 75° WSW 20:01:39 10° NNW
OBJECT-B 3.2 19:54:27 10° SSW 19:57:03 23° W 19:59:40 10° NW
USA 186 4.5 19:59:01 10° SW 20:00:41 14° W 20:02:18 10° WNW
SPOT 5 4.2 19:57:36 10° ESE 20:00:49 21° ENE 20:04:07 10° NNE
IGS 5A 3.4 19:56:58 10° SSE 20:01:07 81° ENE 20:05:16 10° N
Cosmos 2098 Rocket 2.9 19:57:54 10° SSW 20:01:08 67° W 20:05:06 10° N
ARIANE 5 R/B 3.9 19:58:58 11° ESE 20:02:26 26° ENE 20:06:06 10° N
Meteor 2-19 Rocket 4.4 19:56:32 10° S 20:02:31 68° E 20:08:33 10° NNE
Ariane Rocket 3.4 20:01:46 10° S 20:06:47 64° WSW 20:11:50 10° NNW
Landsat 7 3.8 20:03:30 10° SSE 20:08:16 84° ENE 20:13:03 10° NNW
Cosmos 1782 3.3 20:04:38 10° N 20:08:30 44° ENE 20:11:43 14° SSE
Cosmos 2082 Rocket 3.7 20:07:20 10° SW 20:12:39 41° NW 20:18:01 10° NNE
Cosmos 304 Rocket 3.9 20:08:09 10° NNW 20:12:57 73° WSW 20:17:41 10° SSE
Cosmos 220 Rocket 4.5 20:11:09 10° NNW 20:15:22 47° ENE 20:18:36 16° SE
ATLAS 3B R/B 3.7 20:12:52 10° NW 20:19:33 44° WSW 20:26:28 10° S
Cosmos 2360 Rocket 2.8 20:14:15 10° NNW 20:19:40 44° NE 20:23:55 16° ESE
ATLAS 2AS CENTAUR R/B 4.4 20:14:20 10° WSW 20:21:46 42° NW 20:28:57 10° NE
MetOp-B 4.1 20:18:48 10° SSE 20:24:06 87° ENE 20:29:30 10° NNW
Cosmos 1092 Rocket 4.0 20:20:01 10° S 20:26:18 87° E 20:32:40 10° N
ISS -1.5 20:28:07 10° W 20:30:17 16° SW 20:32:13 11° S
Cosmos 2151 3.7 20:27:03 10° SSW 20:31:13 54° WNW 20:35:26 10° N
NOSS 2-1 (C) 3.1 20:28:07 10° SSW 20:31:18 42° ESE 20:34:27 10° NE
ERS-2 3.4 20:30:51 10° N 20:34:19 42° WNW 20:37:45 10° SW
Cosmos 2026 Rocket 4.0 20:28:58 10° S 20:35:18 83° E 20:41:35 10° N
Cosmos 2084 3.2 20:32:47 10° SSW 20:36:49 66° SE 20:40:57 10° NE
COSMOS 2455 3.9 20:34:51 18° SE 20:37:21 24° ESE 20:42:03 10° NE
Cosmos 1812 3.1 20:34:50 10° N 20:38:35 48° ENE 20:40:31 25° SE
NOSS 2-1 (D) 2.9 20:35:47 10° SSW 20:39:02 52° SE 20:42:17 10° NE
GP-B 3.0 20:35:54 10° N 20:40:22 80° E 20:44:01 15° S
Cosmos 1980 Rocket 4.4 20:36:38 10° NW 20:40:32 19° W 20:44:25 10° SW
Cosmos 2333 Rocket 3.2 20:35:33 10° NNW 20:40:41 34° NE 20:44:24 17° ESE
Cosmos 923 Rocket 4.2 20:36:34 10° SSW 20:41:54 77° WNW 20:47:17 10° NNE
BREEZE-M DEB (TANK) 4.2 20:39:09 10° WNW 20:42:44 53° SSW 20:49:45 19° SE
SPOT 1/Viking Rocket 3.7 20:38:27 13° S 20:43:05 73° WSW 20:48:20 10° NNW
ERS-1 Rocket 3.2 20:40:25 21° SE 20:43:37 54° ENE 20:48:31 10° N
USA 245 3.6 20:42:07 17° S 20:45:50 80° WSW 20:49:45 10° NNW
SL-27 R/B 2.8 20:44:42 25° SSE 20:46:21 45° ESE 20:49:48 10° NNE
Okean 3 Rocket 3.5 20:48:05 14° S 20:51:58 83° E 20:56:31 10° N
USA 276 3.8 20:50:03 10° W 20:52:32 21° SW 20:53:10 20° SSW
Cosmos 2237 Rocket 4.4 20:49:38 10° N 20:52:50 15° NE 20:56:04 10° ENE
Cosmos 1408 Rocket 3.9 20:50:55 26° SSE 20:52:54 44° E 20:57:01 10° NNE
Cosmos 2056 Rocket 3.5 20:47:42 10° NNW 20:53:05 82° ENE 20:56:16 25° SSE
Meteor 2-14 Rocket 4.5 20:48:52 15° S 20:54:03 66° E 21:00:09 10° NNE
Cosmos 2322 Rocket 2.4 20:48:29 10° NNW 20:54:05 67° WSW 20:57:55 21° S
CARTOSAT-1 3.7 20:59:31 23° S 21:02:10 71° W 21:06:29 10° NNW
Meteor 1-10 Rocket 4.2 20:58:47 10° N 21:04:19 65° ENE 21:07:16 28° SSE
USA 234 4.5 20:58:44 10° ENE 21:04:42 39° N 21:10:41 10° NW
Spot 2 Rocket 3.7 21:03:04 21° S 21:06:32 69° WSW 21:11:39 10° NNW
Cosmos 2219 Rocket 2.8 21:06:15 10° NNW 21:11:39 45° NE 21:14:26 26° ESE
Resurs 01 Rocket 3.9 21:10:21 10° SW 21:13:40 20° W 21:16:59 10° NW
Cosmos 1371 Rocket 4.4 21:09:34 10° NNW 21:14:52 61° WSW 21:17:55 25° S
BREEZE M DEB (TANK) 4.0 21:11:22 10° SW 21:15:21 61° SSE 21:40:06 10° ENE
Cosmos 1680 Rocket 4.3 21:10:49 10° SW 21:15:58 53° WNW 21:21:07 10° NNE
Cosmos 1515 Rocket 3.5 21:14:29 10° N 21:18:56 85° E 21:20:37 38° SSE
Cosmos 1151 Rocket 4.1 21:14:50 10° NNW 21:18:57 41° W 21:21:48 18° SSW
Terra 1.7 21:19:00 34° SSE 21:21:04 84° ENE 21:25:51 10° NNW
Cosmos 1553 Rocket 4.2 21:16:17 10° NNW 21:22:19 68° W 21:26:23 22° S
Cosmos 2266 Rocket 4.0 21:19:57 28° SSE 21:23:10 62° E 21:29:21 10° NNE
Cosmos 2285 Rocket 4.4 21:17:06 10° NNW 21:23:14 51° ENE 21:26:17 29° ESE
SL-16 R/B 3.6 21:19:36 10° NW 21:24:29 30° WSW 21:28:20 15° SSW
Cosmos 2315 Rocket 4.3 21:21:59 10° N 21:28:11 53° ENE 21:30:56 32° SE
ATLAS 5 CENTAUR R/B 2.9 21:24:19 10° NNW 21:29:32 47° NE 21:33:06 23° ESE
Cosmos 2333 4.1 21:25:19 10° NNW 21:30:57 85° ENE 21:33:17 37° SSE
Cosmos 2228 Rocket 3.4 21:30:03 10° N 21:34:22 50° ENE 21:35:16 43° ESE
NOSS 2-1 (E) 4.1 21:34:09 10° WSW 21:37:17 42° NW 21:40:37 10° NNE
SPOT 5 3.4 21:36:48 28° SSW 21:38:37 45° W 21:42:53 10° NNW
ARIANE 5 R/B 3.8 21:36:31 23° SSW 21:38:44 37° W 21:42:53 10° NNW
COSMOS 2428 3.0 21:33:38 10° NNW 21:39:17 60° ENE 21:41:31 36° ESE
Cosmos 1862 4.4 21:39:48 21° SW 21:42:04 42° WNW 21:45:52 10° N
Cosmos 883 Rocket 4.5 21:36:49 10° N 21:43:05 79° E 21:45:47 37° SSE
NOSS 3-1 (C) 4.1 21:37:27 10° NW 21:44:57 80° SW 21:49:23 33° SSE
Cosmos 292 Rocket 4.2 21:41:00 10° NNW 21:45:40 54° WSW 21:47:10 38° SSW
IRIDIUM 106 4.4 21:41:49 10° N 21:47:02 65° E 21:48:29 45° SE
Cosmos 1048 Rocket 4.1 21:48:39 47° SE 21:49:37 55° ESE 21:54:37 10° NNE
S3M 4.4 21:48:09 10° NNW 21:54:26 59° W 21:57:51 28° SSW
Cosmos 1655 Rocket 4.3 21:54:13 24° SSW 21:58:16 68° W 22:04:41 10° N
COSMOS 2487 2.6 22:00:10 67° N 22:00:10 67° N 22:03:13 10° NNE
ALOS 2 4.1 21:59:23 24° E 22:00:07 25° ENE 22:03:43 10° N
USA 229 DEB 3.9 21:53:33 10° NW 22:00:54 86° NE 22:04:27 36° SE
USA 229 3.9 21:53:39 10° NW 22:01:00 86° NE 22:04:33 36° SE
Cosmos 972 Rocket 3.9 21:59:17 40° SSW 22:01:13 89° ESE 22:06:13 10° NNE
Cosmos 1805 Rocket 3.4 22:02:11 66° SSE 22:02:42 76° E 22:07:08 10° NNE
Cosmos 2360 Rocket 3.4 21:58:33 10° NW 22:03:30 32° WSW 22:05:41 24° SW
Cosmos 2084 Rocket 4.3 22:04:22 10° NNW 22:08:22 43° NE 22:09:18 37° ENE
USA 267 3.3 22:06:26 10° ENE 22:12:48 52° SE 22:14:48 39° S
Cosmos 1500 Rocket 4.3 22:11:54 34° SW 22:13:21 48° WNW 22:17:40 10° N
Cosmos 1980 4.3 22:10:10 10° NNW 22:15:38 47° NE 22:17:31 35° ESE
NOSS 0 Rocket 4.0 22:10:36 10° NNW 22:16:51 69° ENE 22:18:54 43° SE
NOSS 3-1 (A) 4.1 22:13:55 10° NW 22:21:26 78° SW 22:25:00 40° SSE
COSMOS 2455 3.1 22:17:53 16° SW 22:22:47 67° NW 22:28:48 10° NNE
Meteor 1-27 Rocket 4.4 22:18:22 10° NNW 22:23:47 47° W 22:25:47 34° SW
Lacrosse 5 2.9 22:25:50 31° E 22:25:50 31° E 22:28:52 10° ENE
Meteor 1-20 Rocket 4.1 22:23:03 52° S 22:24:32 88° E 22:30:17 10° NNE
Cosmos 2333 Rocket 2.8 22:19:44 10° NW 22:25:05 44° WSW 22:26:23 38° SW
Cosmos 1452 Rocket 4.0 22:20:10 10° NNW 22:25:13 48° WSW 22:26:16 42° SW
Nadezhda 2 Rocket 4.5 22:23:24 48° SSE 22:25:17 75° E 22:31:43 10° NNE
H-2A R/B 4.5 22:21:51 10° N 22:25:51 42° WNW 22:27:05 33° WSW
COBE Rocket 3.6 22:26:51 71° S 22:27:20 84° WSW 22:32:05 10° NNW
Cosmos 972 4.5 22:28:19 57° S 22:29:27 82° ESE 22:34:37 10° NNE
BREEZE-M R/B 3.3 22:27:09 10° WSW 22:31:56 41° ENE 22:35:08 10° ENE
Cosmos 2297 Rocket 2.9 22:32:07 37° ESE 22:32:07 37° ESE 22:37:10 10° NE
Cosmos 2322 4.4 22:26:50 10° NW 22:32:11 41° WSW 22:33:25 37° SW
Cosmos 1500 4.0 22:34:30 45° NE 22:34:30 45° NE 22:37:29 10° NNE
Sich 1 3.2 22:34:10 62° WSW 22:34:30 65° W 22:38:50 10° N
Cosmos 1244 Rocket 4.4 22:34:47 52° S 22:36:26 83° E 22:42:41 10° N
Cosmos 2237 Rocket 2.4 22:32:26 10° NNW 22:38:07 64° ENE 22:39:29 48° ESE
Cosmos 1470 Rocket 4.3 22:43:08 39° ENE 22:43:08 39° ENE 22:46:39 10° NNE
Cosmos 1633 Rocket 3.0 22:44:03 73° ENE 22:44:03 73° ENE 22:48:10 10° NNE
BREEZE-M DEB (TANK) 4.1 22:40:40 10° WNW 22:42:20 20° W 22:42:20 20° W
Cosmos 2227 Rocket 3.0 22:44:30 35° E 22:44:30 35° E 22:49:21 10° NE
USA 234 3.5 22:42:59 24° ESE 22:47:09 69° NNE 22:53:40 10° NW
Cosmos 1110 Rocket 4.1 22:42:20 10° NNW 22:47:35 59° WSW 22:48:10 56° SW
APEX 4.3 22:48:05 51° SSW 22:49:44 89° WNW 22:56:28 10° NNE
Cosmos 1331 Rocket 4.0 22:44:53 10° NNW 22:50:03 62° WSW 22:50:32 59° SW
Cosmos 1666 Rocket 3.5 22:50:46 76° W 22:50:47 76° W 22:55:15 10° N
Cosmos 1340 Rocket 4.3 22:54:24 27° ENE 22:54:24 27° ENE 22:56:52 10° NNE
Cosmos 2219 Rocket 3.2 22:50:33 10° NW 22:55:24 31° WSW 22:56:08 30° WSW
NOSS 2-2 (E) 4.4 22:53:22 10° NW 22:58:48 87° NE 23:00:50 49° SE
Terra 4.2 22:57:53 11° WSW 22:59:26 12° W 23:01:22 10° WNW
Spot 4 4.3 23:03:05 49° WSW 23:03:18 49° W 23:08:01 10° NNW
SL-16 R/B 3.1 23:02:12 10° NNW 23:07:35 41° NE 23:09:38 30° E
Meteor 1-18 Rocket 4.4 23:04:04 10° NNW 23:09:49 61° W 23:10:44 54° SW
ATLAS 5 CENTAUR R/B 2.9 23:08:54 10° NW 23:14:16 42° WSW 23:14:35 42° SW
Cosmos 1862 Rocket 3.9 23:10:11 10° NNW 23:14:06 56° WNW 23:14:06 56° WNW
COSMOS 2428 4.1 23:18:42 10° NW 23:23:06 24° WSW 23:23:31 23° WSW
NOSS 2-2 (C) 4.3 23:18:23 10° NW 23:23:46 79° SW 23:25:11 57° SSE
Intercosmos 25 Rocket 4.5 23:24:02 41° E 23:24:02 41° E 23:29:11 10° NNE
Meteor 2-4 Rocket 3.8 23:18:13 10° NNW 23:24:07 69° W 23:24:59 60° SW
Cosmos 1666 3.5 23:26:25 51° NNW 23:26:25 51° NNW 23:29:27 10° N
Meteor 1-11 Rocket 4.0 23:25:58 47° ESE 23:26:25 49° E 23:31:43 10° NNE
Cosmos 1703 Rocket 3.7 23:25:37 10° N 23:29:38 67° NE 23:29:38 67° NE
Cosmos 1709 Rocket 4.1 23:30:39 56° SSE 23:31:53 68° E 23:38:14 10° NNE
PSLV R/B 4.2 23:29:40 10° NNE 23:34:07 53° E 23:34:07 53° E
Cosmos 1992 Rocket 3.9 23:30:55 10° NNW 23:36:11 75° ENE 23:36:41 68° ESE
ALOS 2 3.6 23:36:46 36° W 23:36:46 36° W 23:40:23 10° NNW
Meteor 1-5 Rocket 4.3 23:35:45 59° SW 23:36:45 73° WNW 23:42:41 10° N
Cosmos 909 Rocket 4.2 23:36:15 55° S 23:37:46 74° ESE 23:45:31 10° NE
Cosmos 1745 Rocket 4.1 23:39:17 50° SW 23:40:45 65° W 23:47:03 10° N
Cosmos 2219 3.2 23:42:23 61° SW 23:43:23 79° WNW 23:49:11 10° NNE
CZ-2D R/B 4.3 23:41:27 10° ENE 23:44:12 14° E 23:45:32 13° ESE
Cosmos 1066 Rocket 4.2 23:41:49 10° N 23:47:44 80° E 23:48:43 62° SSE
Meteor 1-13 Rocket 4.1 23:45:57 10° NNW 23:51:44 83° W 23:52:26 69° S
Timation 1 Rocket 4.2 23:51:21 64° SSW 23:52:21 89° ESE 23:58:24 10° NNE
